Current Conditions
Clear
Conditions



Rainfall
0.00 (mm) - 0.00 (in)
Pressure
1029.92 (mb) - 30.41 (inHG)
Visibility

6.2 (mimiles) - 10.0 (km)
   Temperature
11  °C
52°F
8  °C
Dewpoint
82  %
 Humidity
   Wind Speed
8  mph
7  kts
13  km/h
3.6  m/s
   Wind Direction
 50°
North East
   Airport Data
EGGD
Location Bristol International 15 mi (24.14 km)
Metar :EGGD 190150Z AUTO 05007KT 9999 NCD 11/08 Q1030
Thu 19th September 02:50 am
   Raw Metar Info
Raw METAR is the most common format in the world for the transmission of observational weather data. It is highly standardized through the International Civil Aviation Organization (ICAO), which allows it to be understood throughout most of the world.
   API Info
Data Provided by
https://www.checkwx.com/weather/EGGD
   © Info
CSS/SVG/PHP scripts were developed by weather34.com for use in the weather34 template © 2015-2019

Guide Info provided by Metar-Wikipedia